Lapse_Rate
5.5 5.5 5.6 5.6 5.5 5.5 5.5 5.5 5.6 5.6 5.5 5.4 5.4 5.3 5.2 5.2 5.4 5.5 5.7 5.6 5.7 5.7 5.7 5.8 5.7 5.7 5.6 5.4 5.5 5.5 5.4 5.3 5.4 5.5 5.5 5.4 5.4 5.3 5.3 5.2 5.1 5.1 5.2
5.7 5.7 5.8 5.7 5.5 5.6 5.6 5.7 5.6 5.5 5.6 5.5 5.6 5.5 5.3 5.2 5.2 5.2 5.5 5.6 5.6 5.5 5.4 5.5 5.5 5.4 5.5 5.4 5.4 5.5 5.6 5.5 5.4 5.4 5.5 5.4 5.4 5.4 5.5 5.3 5.3 5.2 5.2
5.7 5.6 5.9 6.0 6.1 5.9 5.8 5.7 5.7 5.7 5.7 5.5 5.6 5.7 5.5 5.4 5.6 5.4 5.2 5.3 5.5 5.5 5.3 5.3 5.1 5.1 5.1 5.0 5.1 5.2 5.2 5.3 5.3 5.3 5.3 5.3 5.3 5.3 5.1 5.3 5.4 5.5 5.4
5.8 5.7 5.7 5.9 6.0 6.1 6.0 5.8 5.7 5.7 5.7 5.8 5.7 5.6 5.6 5.5 5.6 5.8 5.7 5.7 5.6 5.6 5.6 5.5 5.1 4.9 4.9 4.9 5.0 5.0 5.0 4.9 5.0 5.0 5.3 5.2 5.4 5.4 5.2 5.0 4.9 5.0 5.0
5.7 5.7 5.7 5.9 5.9 5.8 5.9 5.9 5.9 6.0 5.9 5.7 5.8 5.7 5.5 5.5 5.5 5.4 5.8 5.8 5.8 5.7 5.6 5.4 5.1 5.0 4.9 4.8 4.8 4.8 4.9 4.8 4.9 4.9 4.9 5.0 5.2 5.3 5.4 5.3 5.1 5.0 5.2
5.9 5.6 5.6 5.8 5.8 5.9 5.8 5.8 5.9 6.0 6.1 6.1 6.0 5.9 6.0 5.8 5.9 6.1 6.0 5.9 5.9 5.8 5.6 5.6 5.5 5.1 4.8 4.7 4.7 4.8 4.8 4.8 5.0 4.8 4.8 5.0 5.1 5.2 5.2 5.0 5.0 5.2 5.2
5.6 5.5 5.5 5.5 5.6 5.8 5.9 5.8 5.6 5.7 5.9 6.0 5.9 6.0 6.0 5.8 5.9 6.2 6.4 6.1 5.8 5.7 5.6 5.5 5.4 5.3 5.2 5.0 4.8 4.7 4.6 4.7 4.6 4.8 4.9 4.8 5.0 5.2 5.2 4.9 5.1 5.2 5.2
5.5 4.8 5.7 5.7 5.7 5.7 5.8 5.8 5.9 6.1 6.0 5.8 5.9 5.8 5.8 5.8 6.0 6.3 6.1 6.0 6.1 6.0 5.9 5.6 5.3 5.1 5.1 5.0 5.0 4.8 4.8 4.4 4.4 4.4 4.6 4.9 5.1 5.3 5.3 5.2 5.2 5.2 5.1
5.3 5.4 5.2 5.6 5.7 5.6 5.8 5.7 5.7 5.9 5.9 5.7 5.8 5.8 6.0 5.8 5.9 5.9 6.0 6.1 6.2 6.2 6.1 5.8 5.3 5.0 4.9 5.0 5.1 5.1 4.8 4.5 4.3 4.5 4.6 4.7 5.1 5.3 5.1 4.8 5.1 5.3 5.0
5.7 5.7 5.9 5.6 5.8 5.7 5.7 5.7 5.9 5.9 5.8 5.8 5.7 5.7 5.7 5.6 5.7 5.8 6.0 6.1 6.3 6.5 6.3 5.6 5.3 5.2 5.1 4.9 5.0 5.1 4.9 4.6 4.6 4.8 4.3 5.0 5.0 5.2 5.2 5.1 5.1 5.2 5.1
6.1 5.7 6.0 6.3 6.0 5.9 5.7 5.5 5.6 5.7 5.8 5.9 6.0 5.9 5.8 5.7 5.6 5.5 5.6 6.1 6.2 6.4 6.2 5.6 5.5 5.3 5.4 5.1 5.1 4.9 4.9 5.0 5.0 4.9 5.0 5.4 5.3 5.4 5.3 5.4 5.4 5.4 5.2
6.3 6.2 6.3 6.2 6.2 6.0 6.0 5.7 5.7 5.7 5.8 5.9 6.0 6.1 6.1 6.0 5.8 5.7 5.6 5.7 6.0 6.4 6.0 5.7 5.5 5.4 5.4 5.2 5.0 4.9 4.7 5.0 5.3 5.3 5.6 5.4 5.3 5.4 5.4 5.5 5.5 5.6 5.5
6.5 6.1 5.8 6.0 6.4 5.9 6.1 6.1 5.8 5.8 5.9 5.8 5.9 6.0 6.1 6.0 5.9 5.8 5.9 5.8 5.6 5.8 6.1 5.7 5.9 5.6 5.5 5.1 5.1 5.0 5.2 5.2 5.3 5.3 5.2 5.2 5.6 5.6 5.8 5.6 5.6 5.6 5.6
6.5 6.7 6.7 6.6 6.6 6.6 6.2 5.9 6.0 5.9 6.0 6.1 6.0 6.1 6.2 6.1 6.1 6.1 6.0 5.8 5.3 5.7 5.9 5.6 5.2 5.4 5.3 5.4 5.3 5.3 5.3 5.0 5.1 5.2 5.4 5.5 5.6 5.6 5.6 5.6 5.7 5.7 5.6
7.3 7.1 7.2 7.1 6.8 6.8 6.6 6.3 5.9 6.1 6.2 6.3 6.3 6.3 6.2 6.2 6.1 5.8 5.8 5.9 5.9 5.8 5.7 5.8 5.7 5.7 5.6 5.6 5.4 5.4 5.3 5.4 5.4 5.5 5.7 5.8 5.7 5.7 5.5 5.5 5.5 5.5 5.6
7.1 7.0 7.2 7.3 7.1 6.7 6.4 6.3 6.2 6.1 6.3 6.4 6.5 6.6 6.6 6.3 5.9 5.7 6.1 6.2 5.8 5.8 5.5 5.6 5.5 5.8 5.6 5.4 5.4 5.4 5.4 5.5 5.6 5.4 5.4 5.6 5.5 5.5 5.6 5.9 6.0 6.0 6.0
6.6 6.7 6.9 6.9 6.6 6.3 6.3 6.3 6.1 6.3 6.4 6.3 6.2 6.2 6.3 6.1 6.1 6.0 5.9 6.0 5.8 5.5 5.5 5.6 5.8 5.6 5.7 5.4 5.5 5.7 5.8 5.6 5.3 5.8 6.1 6.2 6.1 6.0 6.1 6.1 6.2 6.2 6.2
6.3 6.4 6.6 6.7 6.5 6.2 6.1 5.8 5.7 5.8 5.7 5.8 6.0 6.0 6.1 6.0 6.0 5.8 5.9 5.8 5.6 5.8 5.8 5.5 5.7 5.5 5.4 5.6 6.0 5.8 5.7 5.8 6.0 6.0 6.0 6.1 6.2 6.2 6.2 6.2 6.3 6.4 6.3
5.7 5.9 6.1 6.0 6.1 6.0 6.0 5.9 5.9 5.8 5.9 6.1 6.3 6.2 5.9 5.9 5.9 5.4 5.4 5.4 5.6 5.5 5.5 5.6 5.7 6.0 5.9 6.1 6.1 6.1 6.1 6.0 6.0 6.1 6.1 6.1 6.2 6.2 6.2 6.0 5.9 6.0 6.1
5.1 5.5 5.5 5.4 5.3 5.4 5.5 5.4 5.4 5.6 5.7 5.7 5.7 5.8 5.7 6.0 5.9 5.4 5.6 5.7 5.9 6.1 6.1 6.3 6.5 6.5 6.6 6.5 6.2 6.2 6.1 6.0 6.0 5.8 5.9 5.9 5.9 5.9 5.7 5.7 5.8 5.8 5.8
5.3 5.3 5.2 5.1 5.3 4.9 4.9 5.2 5.3 5.1 5.2 5.2 5.5 5.6 5.6 5.8 5.7 5.6 6.3 6.5 6.4 6.3 6.3 6.3 6.2 6.2 6.1 6.1 6.1 6.0 5.9 6.0 6.0 5.9 6.0 5.9 5.9 5.8 5.6 5.8 5.8 5.7 5.5
5.2 5.3 5.5 5.7 5.4 4.5 5.2 5.6 5.4 5.4 5.6 5.4 5.9 6.3 6.5 6.4 6.1 5.9 5.9 5.9 6.0 6.0 6.0 6.1 6.1 6.1 6.0 6.0 6.0 6.0 6.0 6.1 6.1 6.0 6.2 6.1 5.8 5.7 5.7 5.6 5.5 5.3 5.1
5.5 5.5 5.6 5.7 5.7 5.6 5.6 5.6 6.0 5.9 5.9 6.0 6.1 6.0 5.9 5.7 5.6 5.6 5.6 5.7 5.7 5.8 5.9 5.8 5.8 5.8 5.7 5.6 5.8 5.8 5.8 5.8 5.8 5.6 5.6 6.0 5.6 5.5 5.2 5.0 4.8 4.6 4.3
5.5 5.5 5.4 5.4 5.3 5.4 5.5 5.5 5.6 5.6 5.6 5.7 5.8 5.8 5.8 5.7 5.7 5.7 5.6 5.6 5.6 5.7 5.7 5.7 5.7 5.6 5.6 5.5 5.5 5.6 5.5 5.6 5.6 5.1 4.8 5.4 4.7 4.7 4.4 4.0 3.9 3.9 3.8
5.1 5.1 5.2 5.3 5.4 5.4 5.5 5.5 5.5 5.5 5.5 5.5 5.5 5.5 5.5 5.5 5.5 5.5 5.5 5.4 5.3 5.3 5.2 5.2 5.2 5.2 5.3 5.2 5.3 5.3 5.2 5.3 5.3 5.0 4.3 4.6 4.4 4.5 4.0 3.6 3.5 3.3 3.5
5.1 5.1 5.0 5.0 5.0 5.1 5.1 5.2 5.2 5.3 5.3 5.3 5.3 5.2 5.2 5.2 5.1 5.1 5.1 5.1 5.1 5.0 5.0 4.9 4.8 4.9 4.9 4.9 4.9 4.8 4.8 4.8 4.6 4.7 3.8 4.0 3.7 3.7 4.1 3.9 3.8 3.3 3.3
Wind_Speed
6 8 8 10 12 12 12 9 9 9 8 11 12 11 10 13 14 13 13 19 24 19 17 17 17 17 17 17 17 17 17 16 15 14 14 14 14 13 13 12 11 10 9
7 5 6 7 11 14 15 13 8 6 7 9 7 11 12 12 14 14 14 15 24 22 19 18 17 18 19 19 18 18 17 17 16 15 14 15 13 15 14 15 14 13 12
12 10 7 8 10 15 15 11 9 7 4 5 7 5 10 13 12 13 14 14 16 23 23 19 20 19 20 21 20 19 18 17 18 18 16 17 15 15 18 17 16 16 15
14 9 7 8 13 13 10 6 6 6 7 6 6 6 5 7 10 13 11 13 15 14 20 23 22 21 21 21 22 22 21 20 20 20 19 19 17 17 17 18 18 19 18
14 10 6 6 12 7 7 7 6 5 5 4 4 5 4 4 5 8 7 10 14 16 16 21 26 27 25 22 22 23 24 23 22 21 21 21 21 20 18 19 20 20 20
10 8 6 7 7 5 6 6 8 7 5 6 6 5 4 5 5 5 6 10 13 16 17 18 18 18 26 24 23 24 23 21 21 22 23 21 21 20 19 21 20 21 21
8 6 5 7 7 8 8 9 6 6 6 4 3 4 5 5 6 5 5 7 7 13 14 16 15 15 15 21 23 23 22 22 23 22 22 21 20 20 20 21 21 22 24
11 6 6 7 7 5 5 6 8 3 5 6 4 2 2 3 4 6 5 6 9 9 8 13 13 14 15 16 19 23 21 19 20 16 19 19 17 20 20 19 20 21 23
8 8 8 6 6 5 7 8 8 7 5 3 6 4 2 4 1 2 5 5 8 5 7 8 11 13 15 16 15 13 13 16 20 17 16 16 17 18 18 21 23 23 23
6 7 7 7 6 5 6 7 8 5 4 4 2 4 2 4 3 3 2 4 5 6 6 5 5 9 10 9 8 9 11 15 16 19 21 19 19 19 21 24 23 24 24
6 6 6 6 6 5 7 7 6 6 5 4 4 2 4 4 4 7 9 5 2 4 4 4 5 4 8 9 9 10 15 13 14 19 20 18 21 23 24 23 25 25 25
4 5 5 6 8 7 7 8 8 6 6 5 3 4 4 3 3 5 7 10 10 7 4 4 4 4 7 8 10 11 15 18 13 12 14 16 18 19 20 21 22 22 23
3 6 3 5 4 4 5 6 8 8 6 5 7 6 5 7 5 6 7 9 5 4 4 5 5 5 6 8 9 8 7 7 8 9 11 14 16 16 17 19 21 22 23
4 4 5 5 5 4 4 5 4 4 4 3 4 4 5 5 5 6 7 5 5 6 3 4 1 4 2 2 3 3 3 4 7 9 11 13 14 15 16 19 21 22 21
3 3 2 3 3 4 3 3 4 4 4 4 6 5 6 6 5 6 7 7 8 5 5 3 3 5 4 8 9 6 7 8 7 8 10 11 13 14 17 19 22 22 23
1 4 5 5 4 5 4 4 3 3 3 4 5 6 8 6 6 5 5 4 5 5 3 1 3 3 4 6 7 7 7 9 9 12 15 14 15 17 18 19 20 21 22
4 3 5 5 4 4 4 4 3 3 4 4 2 7 1 1 4 3 3 2 2 1 2 2 2 3 1 5 4 7 7 7 8 12 14 16 17 19 21 22 22 22 21
5 5 6 6 7 7 7 7 5 5 6 7 7 5 6 5 6 5 4 6 6 4 3 1 2 3 3 3 3 4 3 9 8 11 15 20 21 22 22 22 21 20 20
8 6 6 7 8 7 8 7 6 6 7 7 8 9 8 5 6 5 6 3 4 4 3 2 2 2 1 2 3 3 4 5 8 14 18 18 22 21 21 24 23 22 23
8 7 8 8 8 7 6 7 6 5 6 7 6 11 6 5 7 7 5 4 4 4 3 2 2 2 2 3 3 3 6 3 6 10 15 17 19 22 25 24 25 23 24
6 6 6 7 6 5 4 4 5 3 5 5 6 12 8 10 14 10 4 4 5 3 3 2 2 2 2 3 4 3 3 6 6 4 4 6 8 8 11 18 19 21 24
4 5 6 5 5 3 7 8 6 4 4 6 8 7 6 8 8 11 11 10 7 2 2 2 2 2 3 3 2 4 7 9 6 3 5 9 5 10 9 12 21 25 23
4 4 4 4 4 4 9 10 10 4 5 5 5 5 5 4 6 5 8 9 9 9 6 1 1 2 3 3 9 8 8 7 7 8 7 8 4 9 8 14 23 25 23
3 3 3 3 4 5 10 9 9 5 5 5 5 5 5 4 5 5 5 4 4 4 4 3 3 4 5 7 7 7 8 8 7 6 4 7 6 7 7 9 21 17 16
2 2 2 4 5 4 8 9 7 5 5 5 5 4 4 3 7 9 4 4 3 3 6 9 11 13 14 14 12 7 4 6 7 7 5 4 3 7 9 8 5 10 16
2 3 3 4 6 3 5 8 6 4 5 3 4 4 3 4 9 10 5 5 6 5 5 5 5 6 9 8 12 6 6 7 7 6 0 4 7 3 4 2 3 3 5
Wind_Direction
216 205 207 198 197 199 203 200 201 209 216 218 230 231 236 244 253 249 243 228 224 228 227 231 236 240 241 242 247 252 250 249 254 254 253 255 252 243 254 256 261 265 272
214 204 199 203 205 196 202 200 202 205 218 220 226 224 234 237 239 245 239 243 228 232 236 234 238 244 249 250 250 253 252 249 249 251 246 246 252 242 242 250 254 255 258
211 218 212 203 205 202 203 200 203 197 211 216 228 218 226 231 231 234 231 236 242 238 238 241 243 242 246 251 254 255 251 249 247 245 241 240 244 246 240 240 245 248 249
214 214 206 206 206 198 193 198 199 216 214 214 224 233 225 220 223 228 235 237 239 238 240 241 242 243 244 247 251 254 256 251 247 245 242 241 242 240 244 241 245 246 246
228 212 207 208 205 197 188 195 202 199 206 207 222 232 226 224 235 244 239 248 244 242 239 246 245 243 242 242 249 253 255 258 255 251 246 238 240 244 243 243 242 248 251
252 220 214 211 198 203 202 194 205 201 213 218 222 229 219 214 218 215 227 239 245 243 240 240 246 248 248 244 245 251 255 258 261 256 253 245 239 243 242 243 240 242 251
269 249 237 215 202 204 208 202 206 205 217 194 189 243 253 238 240 233 224 233 239 246 240 238 238 240 246 247 244 246 252 258 263 264 259 249 244 245 243 246 247 243 245
247 245 241 231 212 191 209 209 201 192 223 183 173 118 242 290 255 238 225 233 240 245 244 244 238 237 240 240 242 243 242 253 265 270 273 268 259 260 268 267 263 256 253
247 241 226 227 214 195 213 213 210 193 206 195 214 155 145 220 346 271 238 235 245 239 246 244 238 241 246 244 238 241 251 258 273 278 280 282 285 282 276 274 271 267 267
239 243 238 216 212 209 215 213 212 200 186 185 203 223 220 150 196 286 266 267 243 247 249 252 241 239 229 223 230 247 261 270 278 284 286 288 293 295 289 287 287 285 282
246 242 227 211 207 189 224 233 228 210 207 189 206 152 220 223 216 243 275 266 279 261 247 238 229 218 212 230 235 247 264 264 270 277 293 298 302 296 294 298 301 302 301
266 270 252 234 218 205 202 221 230 225 211 201 174 185 198 203 194 219 250 262 255 249 231 218 219 228 227 223 248 256 287 294 307 319 315 304 302 312 316 311 303 301 301
265 268 258 247 232 231 226 221 212 217 208 223 208 219 215 241 251 249 254 264 263 243 246 228 218 228 218 218 243 262 268 306 321 328 320 313 319 319 316 311 307 306 304
249 274 276 248 233 237 231 226 222 202 184 209 231 225 244 243 242 248 247 258 262 249 230 254 332 247 246 86 64 4 19 25 356 347 335 328 320 316 312 309 306 305 303
253 278 327 280 178 81 27 247 230 217 203 206 223 223 237 235 235 238 248 239 245 251 238 236 201 25 69 82 62 37 35 9 345 339 335 321 318 317 314 308 304 303 303
107 110 76 39 38 54 38 34 2 275 212 223 221 229 239 234 232 229 218 222 218 239 213 211 75 46 36 36 45 27 14 334 333 339 335 324 314 312 307 303 302 300 298
1 53 80 81 55 48 18 59 64 20 320 305 310 258 62 140 113 63 48 55 68 330 196 79 62 61 77 42 5 360 360 342 339 335 333 328 327 321 312 309 304 301 309
25 61 80 77 70 58 48 48 47 57 78 68 33 30 78 76 29 75 80 77 54 25 35 297 4 12 48 26 347 347 343 336 334 329 330 322 317 311 313 311 310 307 310
39 40 63 68 68 56 62 51 53 54 60 66 75 55 25 33 91 32 45 53 60 50 39 27 325 356 309 8 343 348 336 337 335 324 317 313 314 315 319 314 313 310 303
40 44 50 61 58 55 51 65 53 59 72 72 76 90 51 39 59 77 60 45 45 47 30 14 320 328 341 354 358 342 337 334 323 317 311 310 324 325 317 319 313 305 301
50 44 59 58 48 49 53 62 70 90 103 109 99 79 76 74 70 67 62 39 44 41 28 4 341 329 310 350 351 333 304 315 317 282 305 322 312 300 294 301 301 303 303
63 67 61 62 59 84 74 93 89 88 89 79 77 76 73 65 60 61 58 47 48 53 23 18 16 326 303 302 300 320 328 330 335 302 317 302 296 298 300 302 298 304 304
106 91 84 80 67 43 66 89 91 84 83 85 94 98 86 66 60 55 42 39 28 21 23 41 321 299 310 310 328 318 311 297 294 295 295 297 290 288 288 293 295 304 314
122 128 116 98 77 55 59 68 80 75 68 65 74 83 94 60 32 48 39 25 10 360 355 3 352 297 312 325 316 308 305 304 296 287 292 289 299 284 288 295 294 312 321
142 150 138 109 91 51 65 68 76 73 67 55 49 69 102 65 14 5 37 12 12 352 345 357 1 340 326 321 318 333 307 312 307 310 297 280 292 308 304 288 291 323 333
172 150 145 153 154 139 94 95 95 101 85 66 53 46 43 27 7 5 31 20 360 326 353 358 343 337 321 316 326 331 319 310 307 305 318 323 305 326 308 272 306 310 325